Location: LDNL
(36.4545°S, 141.6685°E)
Time: 10:40:45
(UTC+10:00)

Vanguard 3 - Visible Passes

Search period start: 08 August 2022 00:00
Search period end: 18 August 2022 00:00
Orbit: 508 x 3258 km, 33.3° (Epoch: 07 August)

Date Brightness Start Highest point End Pass type
(mag) Time Alt. Az. Time Alt. Az. Time Alt. Az.
08 Aug 10.5 19:17:47 10° W 19:36:02 47° NW 19:49:28 10° NNE visible
08 Aug 10.9 21:40:00 10° W 21:48:15 16° NW 21:55:04 10° NNW visible
09 Aug 10.5 17:59:39 10° W 18:19:09 62° NNW 18:35:02 10° NE visible
09 Aug 10.8 20:18:15 10° W 20:33:07 30° NW 20:44:24 10° N visible
10 Aug 10.8 18:59:02 10° W 19:17:06 45° NW 19:31:17 10° NNE visible
10 Aug 11.2 21:22:12 10° W 21:29:33 14° NW 21:35:54 10° NNW visible
11 Aug 11.0 19:59:42 10° W 20:14:14 27° NW 20:25:54 10° N visible
12 Aug 11.0 18:40:27 10° W 18:58:05 42° NW 19:12:53 10° NNE visible
12 Aug 11.4 21:05:01 10° WNW 21:10:48 12° NW 21:16:03 10° NW visible
13 Aug 11.2 19:41:21 10° W 19:55:17 25° NW 20:07:09 10° N visible
14 Aug 11.2 18:22:01 10° W 18:39:02 38° NW 18:54:17 10° NNE visible
14 Aug 11.6 20:49:32 10° WNW 20:52:01 10° NW 20:54:25 10° NW visible
15 Aug 11.4 19:23:15 10° W 19:36:20 22° NW 19:48:04 10° N visible
16 Aug 11.4 18:03:47 10° W 18:19:58 35° NW 18:35:25 10° NNE visible
17 Aug 11.6 19:05:29 10° W 19:17:23 20° NW 19:28:35 10° N visible
